Location: Caltech
(34.1382°N, 118.1253°W)
Time: 00:23:28
(UTC-07:00)

Iridium 12 - Visible Passes

Search period start: 31 July 2015 00:00
Search period end: 10 August 2015 00:00
Orbit: 776 x 779 km, 86.4° (Epoch: 30 July)

Date Brightness Start Highest point End Pass type
(mag) Time Alt. Az. Time Alt. Az. Time Alt. Az.
31 Jul 7.9 00:12:25 15° WNW 00:12:25 15° WNW 00:14:51 10° NW visible
31 Jul 6.9 21:58:22 24° ENE 21:58:22 24° ENE 22:01:41 10° NNE visible
31 Jul 7.2 23:38:49 28° WNW 23:38:49 28° WNW 23:42:34 10° NNW visible
01 Aug 7.5 21:24:45 13° ENE 21:24:45 13° ENE 21:26:30 10° NE visible
01 Aug 6.2 23:05:13 51° NW 23:05:13 51° NW 23:09:32 10° N visible
02 Aug 5.7 22:31:35 63° NE 22:31:35 63° NE 22:36:05 10° N visible
03 Aug 6.2 21:57:57 36° ENE 21:57:57 36° ENE 22:02:13 10° NNE visible
03 Aug 7.6 23:38:24 20° WNW 23:38:24 20° WNW 23:42:03 10° NNW visible
04 Aug 7.0 21:24:17 19° E 21:24:17 19° E 21:27:48 10° NE visible
04 Aug 6.6 23:04:44 38° WNW 23:04:44 38° WNW 23:09:24 10° NNW visible
05 Aug 5.6 22:31:04 75° WNW 22:31:04 75° WNW 22:36:11 10° N visible
06 Aug 5.6 21:57:22 55° E 21:57:28 55° E 22:02:34 10° NNE visible
06 Aug 8.0 23:37:49 13° W 23:38:41 13° WNW 23:41:02 10° NW visible
07 Aug 6.4 21:23:39 28° E 21:24:04 28° E 21:28:31 10° NNE visible
07 Aug 7.2 23:04:06 25° W 23:04:47 26° W 23:09:04 10° NNW visible
08 Aug 7.2 20:49:55 14° E 20:50:44 15° E 20:53:41 10° NE visible
08 Aug 6.2 22:30:22 47° WSW 22:31:05 50° W 22:36:08 10° N visible
09 Aug 5.4 21:56:36 62° SSE 21:57:31 83° E 22:02:45 10° N visible
